User: anonymous   Login
Location: Unspecified
(0.0000°N, 0.0000°E)
Time: 09:32:39
(UTC+00:00)
Language:

SCD-2 - Orbit

View from above orbital plane
View from above orbital plane
View from above satellite
View from above satellite

Ground track
Ground track

The orbit data is extracted from the following two-line orbital elements,

1 25504U 98060A   18018.08681039 +.00000233 +00000-0 +14819-4 0  9997
2 25504 024.9950 264.9012 0017418 114.4602 049.5285 14.44030358015786
Epoch (UTC): 18 January 2018 02:05:00
Eccentricity: 0.0017418
inclination: 24.9950°
perigee height: 733 km
apogee height: 757 km
right ascension of ascending node: 264.9012°
argument of perigee: 114.4602°
revolutions per day: 14.44030358
mean anomaly at epoch: 49.5285°
orbit number at epoch: 1578

The dashed part of the orbit path shows where the satellite is in the earth's shadow,  

DLR